Location: Newark
(49.5647°N, 8.2922°E)
Time: 14:26:40
(UTC+00:00)

Transit 2A - Pass Details

Date: 23 February 2020
Orbit: 597 x 961 km, 66.7° (Epoch: 30 March)

Event Time Altitude Azimuth Distance (km) Brightness Sun altitude
Rises 22:03:34 0° 313° (NW) 3,118 9.9 -45.4°
Enters shadow 22:05:23 - 305° (NW) 2,518 9.2 -45.6°
Reaches altitude 10° 22:06:15 10° 299° (WNW) 2,257 - -45.7°
Maximum altitude 22:10:12 23° 249° (WSW) 1,638 - -46.0°
Drops below altitude 10° 22:14:27 10° 199° (SSW) 2,434 - -46.4°
Sets 22:17:29 0° 186° (S) 3,430 - -46.6°
